Location: Wanzleben
(52.0609°N, 11.4408°E)
Time: 10:39:15
(UTC+00:00)

Cosmos 2263 Rocket - Pass Details

Date: 22 January 2021
Orbit: 825 x 847 km, 71.0° (Epoch: 24 February)

Event Time Altitude Azimuth Distance (km) Brightness Sun altitude
Rises 18:27:11 0° 259° (W) 3,404 6.7 -24.6°
Reaches altitude 10° 18:30:11 10° 274° (W) 2,469 5.7 -25.1°
Maximum altitude 18:34:34 23° 325° (NW) 1,747 4.2 -25.7°
Enters shadow 18:38:16 13° 11° (N) 2,280 4.3 -26.3°
